Location: B?lite?ti
(46.2833°N, 22.7333°E)
Time: 17:04:07
(UTC+00:00)

Cosmos 2112 Rocket - Pass Details

Date: 24 January 2021
Orbit: 757 x 786 km, 74.1° (Epoch: 01 March)

Event Time Altitude Azimuth Distance (km) Brightness Sun altitude
Rises 16:31:24 0° 341° (NNW) 3,251 7.3 -12.0°
Reaches altitude 10° 16:33:51 10° 345° (NNW) 2,315 6.5 -12.4°
Maximum altitude 16:39:01 56° 64° (ENE) 904 4.0 -13.3°
Drops below altitude 10° 16:44:07 10° 143° (SE) 2,285 6.2 -14.1°
Sets 16:46:30 0° 148° (SSE) 3,203 7.0 -14.5°
